This demonstration page uses our WeatherBlox Daily Observations layout. Learn more.

38.88101, -77.10428

Hourly Observations for October 30, 2020

Temp ( °F °C ) Dew Point ( °F °C ) Humidity (%) Winds ( mph kmh ) Pressure ( in mb ) Visibility ( mi km ) Precip ( " mm )
12:52 am 00:52 Cloudy 52 11.1 48 8.9 86 86 NNE 15 24 29.61 1003 10 16.0934 0 0
1:52 am 01:52 Cloudy with Light Rain 52 11.1 48 8.9 86 86 NNE 15 24 29.62 1003 10 16.0934 0.001 0.001
2:43 am 02:43 Cloudy with Rain 51 10.6 48 8.9 89 89 NNE 15 24 29.62 1003 5 8.0467 0.1 2.54
2:52 am 02:52 Cloudy with Rain 51 10.6 48 8.9 89 89 NNE 12 19 29.63 1003 6 9.65604 0.14 3.556
3:08 am 03:08 Cloudy with Rain 51 10.6 48 8.9 89 89 N 14 22 29.63 1003 6 9.65604 0.04 1.016
3:24 am 03:24 Cloudy with Rain 51 10.6 48 8.9 89 89 N 13 20 29.63 1003 6 9.65604 0.09 2.286
3:45 am 03:45 Cloudy with Rain 50 10 48 8.9 93 93 N 10 17 29.64 1004 6 9.65604 0.13 3.302
3:52 am 03:52 Cloudy with Light Rain 51 10.6 48 8.9 89 89 NNE 12 19 29.64 1004 7 11.26538 0.14 3.556
4:24 am 04:24 Cloudy with Light Rain 51 10.6 48 8.9 89 89 NNE 10 17 29.61 1003 10 16.0934 0.02 0.508
4:52 am 04:52 Cloudy 50 10 48 8.9 93 93 NNW 18 30 29.62 1003 10 16.0934 0.02 0.508
5:52 am 05:52 Cloudy with Light Rain 50 10 47 8.3 89 89 N 21 33 29.67 1005 10 16.0934 0.001 0.001
6:16 am 06:16 Cloudy 50 10 47 8.3 89 89 N 18 30 29.71 1006 9 14.48406 0.001 0.001
6:52 am 06:52 Cloudy 50 10 46 7.8 86 86 N 15 24 29.72 1007 10 16.0934 0.001 0.001
7:05 am 07:05 Cloudy 50 10 46 7.8 86 86 N 12 19 29.74 1007 10 16.0934 0 0
7:52 am 07:52 Cloudy 50 10 46 7.8 86 86 NNW 14 22 29.77 1008 10 16.0934 0 0
8:52 am 08:52 Cloudy 50 10 46 7.8 86 86 NNW 15 24 29.84 1011 10 16.0934 0 0
8:59 am 08:59 Cloudy 50 10 46 7.8 86 86 NNW 20 31 29.85 1011 10 16.0934 0 0
9:20 am 09:20 Cloudy 50 10 47 8.3 89 89 NNW 13 20 29.87 1012 10 16.0934 0 0
9:52 am 09:52 Cloudy 50 10 45 7.2 83 83 NNW 15 24 29.89 1012 10 16.0934 0 0
10:13 am 10:13 Cloudy 51 10.6 45 7.2 80 80 NNW 18 30 29.9 1013 10 16.0934 0 0
10:22 am 10:22 Cloudy 51 10.6 44 6.7 77 77 NNW 15 24 29.91 1013 10 16.0934 0 0
10:52 am 10:52 Mostly Cloudy 50 10 43 6.1 77 77 N 20 31 29.92 1013 10 16.0934 0 0
11:52 am 11:52 Mostly Cloudy 53 11.7 43 6.1 69 69 NNW 15 24 29.96 1014 10 16.0934 0 0
12:28 pm 12:28 Mostly Cloudy 53 11.7 43 6.1 69 69 NW 17 28 29.98 1015 10 16.0934 0 0
12:52 pm 12:52 Mostly Cloudy 53 11.7 44 6.7 72 72 NW 16 26 29.98 1015 10 16.0934 0 0
1:13 pm 13:13 Cloudy 51 10.6 43 6.1 74 74 NW 15 24 30 1016 10 16.0934 0 0
1:52 pm 13:52 Mostly Cloudy 51 10.6 42 5.6 71 71 NW 14 22 30.02 1017 10 16.0934 0 0
2:05 pm 14:05 Mostly Cloudy 51 10.6 41 5 69 69 NW 17 28 30.02 1017 10 16.0934 0 0
2:17 pm 14:17 Cloudy 51 10.6 42 5.6 71 71 NW 14 22 30.03 1017 10 16.0934 0 0
2:52 pm 14:52 Mostly Cloudy 52 11.1 42 5.6 69 69 NNW 12 19 30.05 1018 10 16.0934 0 0
3:15 pm 15:15 Mostly Cloudy 54 12.2 42 5.6 64 64 NNW 15 24 30.06 1018 10 16.0934 0 0
3:52 pm 15:52 Mostly Cloudy 54 12.2 41 5 62 62 N 15 24 30.07 1018 10 16.0934 0 0
4:52 pm 16:52 Mostly Sunny 54 12.2 41 5 62 62 N 12 19 30.09 1019 10 16.0934 0 0
5:52 pm 17:52 Partly Cloudy 51 10.6 40 4.4 66 66 N 9 15 30.12 1020 10 16.0934 0 0
6:52 pm 18:52 Mostly Cloudy 51 10.6 40 4.4 66 66 NW 6 9 30.15 1021 10 16.0934 0 0
7:52 pm 19:52 Cloudy 52 11.1 40 4.4 64 64 NNW 6 9 30.2 1023 10 16.0934 0.001 0.001
8:52 pm 20:52 Partly Cloudy 50 10 41 5 71 71 NW 8 13 30.23 1024 10 16.0934 0 0
9:52 pm 21:52 Cloudy 50 10 42 5.6 74 74 WNW 8 13 30.26 1025 10 16.0934 0 0
10:52 pm 22:52 Mostly Cloudy 49 9.4 42 5.6 77 77 NNW 10 17 30.3 1026 10 16.0934 0.01 0.254
11:52 pm 23:52 Cloudy 49 9.4 41 5 74 74 NW 10 17 30.33 1027 10 16.0934 0 0

Powered by AerisWeather